User: anonymous   Login
Location: Monsanto
(38.0260°N, 122.0555°W)
Time: 23:29:49
(UTC+00:00)
Language:

Tiangong - Orbit

View from above orbital plane
View from above orbital plane
View from above satellite
View from above satellite

Ground track
Ground track

The orbit data is extracted from the following two-line orbital elements,

1 48274U 21035A   24204.25777010 -.03760729  00000-0 -47593-1 0  9992
2 48274  41.4633 228.9081 0004672 164.9183 304.5744 15.62547884184582
Epoch (UTC): 22 July 2024 06:11:11
Eccentricity: 0.0004672
inclination: 41.4633°
perigee height: 377 km
apogee height: 383 km
right ascension of ascending node: 228.9081°
argument of perigee: 164.9183°
revolutions per day: 15.62547884
mean anomaly at epoch: 304.5744°
orbit number at epoch: 18458

The dashed part of the orbit path shows where the satellite is in the earth's shadow,  

DLR